Coronach, Saskatchewan

2:21 PM CST on December 14, 2017 (GMT -0600)
Coronach

Weather History for CWAQ - August, 2012

Change the Weather History Date:

Thursday, August 23, 2012

  Actual Average Record
Temperature  
Mean Temperature 68 °F -  
Max Temperature 89 °F - - ()
Min Temperature 47 °F - - ()
Cooling Degree Days 3    
Growing Degree Days 18 (Base 50)    
Moisture  
Dew Point 0 °F    
Average Humidity 18    
Maximum Humidity 44    
Minimum Humidity 4    
Precipitation  
Precipitation 0.00 in - - ()
Sea Level Pressure  
Sea Level Pressure 29.77 in    
Wind  
Wind Speed 2 mph ()    
Max Wind Speed 6 mph    
Max Gust Speed -    
T = Trace of Precipitation, MM = Missing Value Source: Averaged Metar Reports

Daily Weather History Graph

Daily Weather History Graph

Search for Another Location

Airport or City:

Trip Planner

Search our weather history database for the weather conditions in past years. The results will help you decide how hot, cold, wet, or windy it might be!

Date:

Astronomy

Aug. 23, 2012 Rise Set
Actual Time 6:06 AM CST 8:01 PM CST
Civil Twilight 5:32 AM CST 8:35 PM CST
Nautical Twilight 4:50 AM CST 9:16 PM CST
Astronomical Twilight 4:03 AM CST 10:03 PM CST
Moon 1:39 PM CST (8/23) 10:48 PM CST (8/23)
Length of Visible Light 15h 02m
Length of Day
13h 55m
Waxing Crescent, 41% of the Moon is Illuminated
Aug 23
Waxing Crescent
Aug 24
First Quarter
Aug 31
Full
Sep 8
Last Quarter
Sep 15
New

Hourly Weather History & Observations

Time (CST) Temp. Dew Point Humidity Pressure Visibility Wind Dir Wind Speed Gust Speed Precip Events Conditions
12:00 AM 54 °F 22 °F 17% 29.81 in - 3.5 mph - -  
12:00 AM 54.3 °F 22.1 °F 29% 29.81 in - North - - N/A   Unknown
1:00 AM 52.2 °F 24.3 °F 34% 29.81 in - North - - N/A   Unknown
2:00 AM 50.5 °F 23.5 °F 35% 29.81 in - North - - N/A   Unknown
3:00 AM 49.6 °F 23.9 °F 37% 29.81 in - North - - N/A   Unknown
4:00 AM 49.6 °F 25.2 °F 38% 29.81 in - North - - N/A   Unknown
5:00 AM 48.2 °F 26.8 °F 43% 29.83 in - North - - N/A   Unknown
6:00 AM 50 °F 28 °F 30% 29.84 in - 1.2 mph - -  
6:00 AM 49.6 °F 28.2 °F 44% 29.84 in - North - - N/A   Unknown
7:00 AM 50.7 °F 29.1 °F 43% 29.85 in - North - - N/A   Unknown
8:00 AM 59.9 °F 28.0 °F 30% 29.85 in - North - - N/A   Unknown
9:00 AM 69.1 °F 21.9 °F 17% 29.84 in - North - - N/A   Unknown
10:00 AM 75.2 °F 15.3 °F 10% 29.83 in - North - - N/A   Unknown
11:00 AM 79.3 °F -2.4 °F 4% 29.82 in - North - - N/A   Unknown
12:00 PM 84 °F -36 °F 4% 29.80 in - 3.5 mph - -  
12:00 PM 84.2 °F -36.2 °F 4% 29.80 in - North - - N/A   Unknown
1:00 PM 85.6 °F -35.3 °F 4% 29.78 in - North - - N/A   Unknown
2:00 PM 87.4 °F -34.2 °F 4% 29.76 in - North - - N/A   Unknown
3:00 PM 89.1 °F -33.3 °F 4% 29.74 in - North - - N/A   Unknown
4:00 PM 88.2 °F -33.9 °F 4% 29.72 in - North - - N/A   Unknown
5:00 PM 86.2 °F -35.0 °F 4% 29.73 in - North - - N/A   Unknown
6:00 PM 85 °F -36 °F 4% 29.70 in - 5.8 mph - -  
6:00 PM 84.7 °F -35.9 °F 4% 29.70 in - North - - N/A   Unknown
7:00 PM 83.7 °F -36.4 °F 4% 29.68 in - North - - N/A   Unknown
8:00 PM 77.7 °F 1.2 °F 5% 29.68 in - North - - N/A   Unknown
9:00 PM 66.4 °F 14.4 °F 13% 29.68 in - North - - N/A   Unknown
10:00 PM 66.7 °F 13.6 °F 13% 29.68 in - North - - N/A   Unknown
11:00 PM 61.9 °F 20.8 °F 21% 29.68 in - North - - N/A   Unknown